Location: Atbuku
(36.4936°N, 30.4362°E)
Time: 03:47:28
(UTC+00:00)

Spot 4 Rocket - Visible Passes

Search period start: 17 March 2026 00:00
Search period end: 27 March 2026 00:00
Orbit: 768 x 774 km, 98.8° (Epoch: 16 March)

Date Brightness Start Highest point End Pass type
(mag) Time Alt. Az. Time Alt. Az. Time Alt. Az.
17 Mar 4.0 16:36:30 10° SSE 16:41:33 70° ENE 16:46:37 10° N visible
17 Mar 7.1 18:19:27 10° WSW 18:21:03 11° W 18:22:38 10° WNW visible
18 Mar 6.1 17:41:22 10° SSW 17:45:36 27° W 17:49:53 10° NW visible
19 Mar 4.6 17:05:20 10° S 17:10:21 61° WSW 17:15:24 10° NNW visible
20 Mar 4.1 16:30:16 10° SSE 16:35:15 60° ENE 16:40:16 10° N visible
20 Mar 6.9 18:12:10 10° WSW 18:14:39 14° W 18:17:10 10° WNW visible
21 Mar 5.9 17:34:47 10° SSW 17:39:15 31° W 17:43:45 10° NW visible
22 Mar 4.3 16:58:58 10° S 17:04:01 71° WSW 17:09:07 10° NNW visible
23 Mar 6.8 18:05:11 10° SW 18:08:16 16° W 18:11:22 10° NW visible
24 Mar 5.6 17:28:14 10° SSW 17:32:54 36° W 17:37:35 10° NNW visible
25 Mar 4.1 16:52:36 10° SSE 16:57:42 83° WSW 17:02:48 10° NNW visible
26 Mar 6.6 17:58:19 10° SW 18:01:53 19° W 18:05:26 10° NW visible
